Location: Waco, TX
(31.5480°N, 97.1670°W)
Time: 04:06:52
(UTC-06:00)

ISS - Pass Details

Date: 20 November 2017
Orbit: 401 x 407 km, 51.6° (Epoch: 18 November)

Event Time Altitude Azimuth Distance (km) Brightness Sun altitude
Rises 06:04:26 0° 296° (WNW) 2,308 - -12.2°
Reaches altitude 10° 06:07:02 10° 274° (W) 1,446 - -11.7°
Exits shadow 06:08:11 15° 255° (WSW) 1,198 -2.0 -11.5°
Maximum altitude 06:09:09 16° 233° (SW) 1,123 -1.9 -11.3°
Drops below altitude 10° 06:11:16 10° 192° (SSW) 1,441 -1.0 -10.8°
Sets 06:13:51 0° 170° (S) 2,295 0.4 -10.3°
